CZ-6A DEB, 61476

Orbit data source: Space-Track

CZ-6A DEB, 61476 is space debris in LEO originally from a launch on Tue, 06 Aug 2024 UTC launched from the Taiyaun Space Center, China (TSC). Debris objects in space refer to the collection of defunct objects orbiting the Earth. Examples of debris include non-operational satellites, rocket bodies, and fragments generated from explosions, collisions, or faulty payload assembly.

Loading next visibility...
CZ-6A DEB details
Identifier
61476, 2024-140AAJ
Orbit
LEO
Last TLE update1 day ago
Origin
Flag of CNCNSA (CN / PRC)
ManufacturerSAST
MissionSpacecraft
Bus & MotorUnknown
MassUnknown
Launch date (UTC)
2024-08-06 (6 months ago)
Launch vehicleUnknown
Launch site
Taiyaun Space Center, China (TSC)
Object type
Payload
Rocket body
Debris
Shape & HBRUnknown
Radar Cross SectionSmall (<0.1 m²)

Expand to show TLE details & history

TLE from 1 day ago
0 CZ-6A DEB
1 61476U 24140AAJ 25035.21411452  .00000520  00000-0  29515-3 0  9992
2 61476  89.0007 330.9905 0108748  10.1438 350.1903 14.05607012 21509
Epoch: 2025-02-04T05:08Z
Definitive object data (Epoch: 2025-02-04T05:08:19.494Z)
Latitude0.00004°
Longitude119.28666°
Altitude799.768 km
Speed7.493 km/s
True Right ascension22h 03m 57s
True Declination0° 00' 00"
Sunlit
Object was in daylight at TLE epoch
Visualization TLE readout
Latitude-13.26111°
Longitude118.93447°
Altitude805.835 km
Speed7.488 km/s
Apparent Right ascension21h 30m 28s
Apparent Declination-25° 57' 42"
Sunlit
Object is in daylight
Visualization observer readout
Local Sidereal Time08:44:30
Azimuth322.044° NNW
Elevation-73.071°
Doppler factor1
Orbital elements
Apogee altitude950.252 km
Perigee altitude792.578 km
Semi-major axis7,249.552 km
Eccentricity0.0108748
Inclination89.0007°
RAAN330.9905°
Arg. of periapsis10.1438°
True anomaly349.9751°
Mean anomaly350.1903°
Eccentric anomaly350.08299°
Mean motion3.51622 °/min
BSTAR0.00029515
Orbital period102.38 mins
Loading maneuver chart data...
Loading historical data...
Loading historical data...
Loading historical data...
Loading historical data...
Loading historical data...
Loading historical data...
Loading historical data...

CZ-6A DEB Visibility forecast

Observer location: undefined°, undefined

Span
Click to sort rows by Start time (UTC) header in descending order
Start Az.
Max El. time (UTC)
Max El. Az.
Max El.
End time (UTC)
End Az.
10 mins2025-02-05 07:20:17.627Z14.117° NNE2025-02-05 07:25:17.627Z80.072° E36.684°2025-02-05 07:30:17.627Z157.375° SSE
7 mins2025-02-05 09:04:17.627Z323.586° NNW2025-02-05 09:07:17.627Z286.722° WNW21.53°2025-02-05 09:11:17.627Z238.569° WSW
6 mins2025-02-05 18:52:17.627Z115.567° SE2025-02-05 18:55:17.627Z74.091° E20.113°2025-02-05 18:58:17.627Z35.32° NE
8 mins2025-02-05 20:33:17.627Z208.67° SW2025-02-05 20:37:17.627Z277.202° WNW33.829°2025-02-05 20:41:17.627Z340.37° N
|